Погода в Филлахе

Австрия     46°36′30″N   13°51′02″E
темп.,
°C
ветер,
м/с
пор.,
м/с
влажн.,
%
обл.,
%
осадки,
мм/ч
давл.,
гПа
погр.,
м
15 июня, вт
вт1523:00+11ююз119638 0.0 102111
02:00+10ссв009543 0.0 102118
05:00+9з119573 0.0 102116
08:00+14сз118133 0.0 1021341
11:00+20ссв1156100 0.0 10191033
14:00+23всв1243100 0.0 10171553
17:00+22вюв114999 0.0 10161221
20:00+16ююз1287100 0.3 101863
16 июня, ср
ср1623:00+13юз1195100 0.3 101914
02:00+12юз0195100 0.3 101912
05:00+11зюз0194100 0.0 101912
08:00+15с018476 0.0 1019187
11:00+20в116411 0.6 1018905
14:00+21ююз11614 2.2 10171337
17:00+22ююз21504 0.4 10161679
20:00+16ююз228639 1.8 101722
17 июня, чт
чт1723:00+13ююз11904 1.0 101913
02:00+12ююз11910 1.1 101912
05:00+11юз11924 0.0 101913
08:00+16ссз01830 0.0 1018202
11:00+22св115216 0.0 10171415
14:00+21ююв225858 0.8 10171389
17:00+21ююз126591 1.1 1017781
20:00+15зюз239495 2.9 101968
18 июня, пт
пт1823:00+12ююз11926 0.0 102020
02:00+11юз22923 0.0 102035
05:00+11юз22930 0.0 101928
08:00+16з12810 0.0 1018259
11:00+22юз135357 0.0 10171456
14:00+21юз2257100 0.3 10171281
17:00+22юз2155100 0.0 10161261
20:00+18юз228228 0.0 101785
19 июня, сб
сб1923:00+13юз229233 0.0 101928
02:00+13юз119110 0.0 101925
05:00+13юз119279 0.0 101815
08:00+18ссв127760 0.0 1020204
11:00+23св235346 0.0 10191058
14:00+26всв223911 0.0 10181760
17:00+26в124278 0.2 10181492
20:00+19ю2284100 0.6 102020